Location: Briis
(48.6240°N, 2.1211°E)
Time: 01:38:42
(UTC+00:00)

Daily predictions for brighter satellites

Satellite Brightness Start Highest point End
(mag) Time Altitude Azimuth Time Altitude Azimuth Time Altitude Azimuth
CZ-4C R/B 4.5 00:30:27 20° NNW 00:31:58 22° N 00:37:13 10° NE
USA 234 4.3 00:38:31 10° ENE 00:43:28 40° NNE 00:43:28 40° NNE
Cosmos 2263 Rocket 4.2 00:58:46 10° N 01:03:17 24° NE 01:03:49 23° NE
Cosmos 1980 Rocket 4.4 01:05:33 18° ENE 01:05:33 18° ENE 01:07:40 10° NE
Lacrosse 5 4.3 01:22:28 18° ENE 01:22:28 18° ENE 01:23:46 10° ENE
Resurs 1-4 Rocket 3.9 01:24:24 10° NNE 01:26:57 29° NNE 01:26:57 29° NNE
SL-16 R/B 3.9 01:35:43 31° NNW 01:35:43 31° NNW 01:38:43 10° NNW
CZ-2D R/B 3.8 01:30:58 10° NNE 01:33:36 30° NNE 01:33:36 30° NNE
ARIANE 5 R/B 4.5 01:46:25 10° NE 01:50:05 22° E 01:50:05 22° E
ATLAS 5 CENTAUR R/B 4.0 01:57:35 20° N 01:57:35 20° N 02:00:08 10° NNE
ATLAS 2AS CENTAUR R/B 4.0 01:56:03 10° NW 02:03:12 39° NNE 02:09:52 10° E
Cosmos 2278 4.3 02:10:19 53° NE 02:10:19 53° NE 02:14:44 10° NNE
Cosmos 2369 4.3 02:20:39 52° N 02:20:39 52° N 02:25:05 10° NNE
ADEOS II 2.8 02:14:20 10° NNE 02:18:20 52° NNE 02:18:20 52° NNE
SJ 16-02 3.9 02:15:29 10° NNW 02:16:14 15° N 02:16:14 15° N
SL-4 R/B 4.5 02:21:54 20° E 02:21:54 20° E 02:23:55 10° E
IDEFIX/ARIANE 42P 3.9 02:16:44 10° NNE 02:21:28 33° E 02:22:24 31° ESE
CZ-4C R/B 4.5 02:17:05 10° NW 02:22:42 29° NNE 02:29:09 10° E
USA 234 3.7 02:20:38 10° E 02:27:01 58° NNE 02:30:48 26° NW
Nadezhda 3 Rocket 4.1 02:27:57 66° NNW 02:27:57 66° NNW 02:33:17 10° N
Cosmos 2228 Rocket 4.3 02:33:13 39° ENE 02:33:13 39° ENE 02:36:37 10° NNE
Cosmos 1238 Rocket 3.9 02:26:27 10° N 02:33:02 80° E 02:33:17 78° ESE
USA 305 4.5 02:36:27 33° NE 02:36:27 33° NE 02:39:04 10° ENE
Cosmos 1535 Rocket 4.5 02:29:17 10° N 02:35:44 84° E 02:36:27 72° SSE
CZ-4B R/B 4.1 02:30:40 10° NNE 02:34:35 53° N 02:34:35 53° N
H-2A R/B 4.2 02:34:57 10° ESE 02:38:38 26° ENE 02:42:24 10° N
USA 306 4.4 02:40:43 35° NE 02:40:43 35° NE 02:43:30 10° ENE
Cosmos 1697 Rocket 3.5 02:40:57 41° NNW 02:40:57 41° NNW 02:45:26 10° NNE
ATLAS CENTAUR R/B 4.4 02:28:54 10° WNW 02:43:15 50° N 02:48:40 10° ENE
Cosmos 1980 Rocket 2.3 02:47:20 64° NNW 02:47:20 64° NNW 02:52:31 10° NNE
Cosmos 2263 Rocket 3.2 02:42:12 10° NNW 02:45:20 34° NW 02:45:20 34° NW
ASTEX 1 3.5 02:46:24 10° N 02:51:26 74° E 02:51:26 74° E
Cosmos 1844 Rocket 4.4 02:46:42 10° NNW 02:51:46 32° NE 02:56:48 10° ESE
Cosmos 1898 Rocket 3.7 02:51:05 10° NNW 02:56:21 72° ENE 03:01:38 10° SSE
Cosmos 2322 Rocket 3.2 02:54:21 30° SSE 02:56:27 41° ESE 03:01:46 10° NE
Meteor 2-9 4.4 02:52:01 10° NNW 02:57:32 86° W 02:57:42 84° SSW
Cosmos 1666 4.0 02:55:11 10° N 02:58:47 38° ENE 02:59:07 37° E
Spot 4 Rocket 4.4 02:54:34 10° NNE 02:59:41 59° ESE 03:01:00 44° SSE
Meteor 1-11 Rocket 4.3 02:55:05 10° N 03:00:47 56° ENE 03:06:18 10° SSE
Lacrosse 5 2.6 03:01:39 41° NNW 03:01:58 42° NNW 03:06:48 10° NE
Cosmos 921 Rocket 3.5 03:05:07 53° NNE 03:05:07 53° NNE 03:08:24 10° NNE
IRS-1C 4.0 02:59:46 10° N 03:05:06 72° WNW 03:05:14 71° W
Cosmos 1812 3.4 03:08:14 52° NE 03:08:14 52° NE 03:11:19 10° NNE
SL-16 R/B 2.5 03:06:39 42° S 03:08:23 61° ESE 03:14:00 10° NE
USA 307 3.7 03:08:53 43° N 03:08:53 43° N 03:12:54 10° ENE
Resurs 1-4 Rocket 3.7 03:05:06 10° N 03:08:01 21° NW 03:08:01 21° NW
ERBS 3.9 03:12:22 34° NE 03:12:22 34° NE 03:14:26 10° NE
USA 308 3.7 03:12:08 43° NNW 03:12:12 43° N 03:16:17 10° ENE
Cosmos 1727 Rocket 4.4 03:09:26 16° S 03:14:27 63° E 03:20:41 10° NNE
Cosmos 1339 Rocket 4.3 03:12:47 46° SSW 03:14:49 81° W 03:21:01 10° N
CZ-2D R/B 3.8 03:12:01 10° NNW 03:14:55 19° NW 03:14:55 19° NW
Cosmos 1937 Rocket 3.5 03:10:42 10° NNW 03:15:53 76° ENE 03:21:00 10° SSE
FALCON 9 DEB 4.2 03:20:10 42° E 03:20:10 42° E 03:22:43 10° ENE
CZ-4C R/B 3.5 03:20:02 59° E 03:20:09 59° ENE 03:23:38 10° N
IRIDIUM 114 4.3 03:15:26 10° N 03:20:41 82° E 03:24:29 19° S
Cosmos 1536 3.5 03:19:50 10° N 03:23:52 54° ENE 03:27:51 10° SSE
Cosmos 1763 Rocket 3.5 03:25:16 41° SSW 03:27:09 81° ESE 03:32:28 10° NNE
CZ-2D R/B 3.4 03:22:58 10° N 03:27:14 73° WNW 03:27:24 71° W
USA 32 4.2 03:23:49 10° N 03:29:05 71° E 03:34:20 10° SSE
ARIANE 5 R/B 2.5 03:24:49 10° N 03:29:47 56° WNW 03:30:25 52° W
IRIDIUM 103 4.2 03:24:35 10° N 03:29:51 85° W 03:33:37 19° S
NOSS 3-4 (A) 3.8 03:24:07 10° NW 03:31:04 86° SW 03:38:49 10° SE
NOSS 3-4 (C) 3.8 03:24:12 10° NW 03:31:11 87° SW 03:38:56 10° SE
USA 267 3.2 03:27:14 10° ENE 03:33:49 79° SE 03:36:58 34° SW
Cosmos 1707 Rocket 3.7 03:32:27 31° S 03:34:27 71° E 03:38:49 10° NNE
ADEOS Rocket 3.6 03:32:09 10° SSE 03:38:33 61° ENE 03:44:21 10° N
Meteor 1-5 Rocket 4.2 03:35:11 10° NNW 03:40:18 49° W 03:42:00 36° SW
NOSS 3-3 (A) 4.2 03:38:58 38° WSW 03:41:14 59° NW 03:48:00 10° NE
CZ-4B R/B 3.6 03:38:34 10° SE 03:41:19 27° ENE 03:44:10 10° N
NOSS 3-3 (C) 4.2 03:39:06 38° WSW 03:41:21 59° NW 03:48:06 10° NE
ERS-2 2.8 03:38:56 10° SSE 03:42:31 56° ENE 03:46:07 10° N
ATLAS 5 CENTAUR R/B 4.2 03:39:49 10° NW 03:42:45 15° N 03:45:54 10° NE
Cosmos 540 Rocket 4.0 03:38:54 17° S 03:42:49 59° ESE 03:47:55 10° NNE
MSX 3.7 03:38:57 10° NNE 03:44:45 78° WNW 03:48:33 22° SSW
Cosmos 1733 Rocket 3.2 03:42:44 10° N 03:47:06 73° E 03:51:25 10° SSE
Cosmos 44 Rocket 3.6 03:44:48 27° SSW 03:47:15 60° ESE 03:52:04 10° NE
Cosmos 44 4.3 03:46:58 26° NW 03:47:52 28° NW 03:51:59 10° NNE
IRIDIUM 106 4.3 03:42:58 10° N 03:48:08 60° W 03:51:57 18° SSW
Cosmos 1743 4.0 03:46:06 10° N 03:49:44 41° ENE 03:53:22 10° SSE
Cosmos 990 Rocket 4.3 03:45:08 10° NW 03:49:57 39° WSW 03:54:46 10° S
PAYLOAD A 4.0 03:47:36 10° NNE 03:52:18 72° ESE 03:57:01 10° S
Meteor 1-10 Rocket 4.4 03:51:45 28° SW 03:54:44 56° WNW 04:00:34 10° N
ATLAS 2AS CENTAUR R/B 2.7 03:47:19 10° NW 03:54:52 77° SW 04:01:46 10° SSE
Cosmos 2173 Rocket 4.0 03:48:54 10° N 03:55:18 88° ENE 04:01:41 10° S
Landsat 5 3.6 03:51:38 10° S 03:56:05 58° W 04:00:27 10° NNW
Cosmos 2333 Rocket 4.1 03:51:47 10° SSE 03:56:38 29° ESE 04:01:29 10° NE
BREEZE M DEB (TANK) 4.4 03:42:33 10° WNW 03:56:53 42° SW 04:01:27 10° SSE
CZ-2C R/B 2.9 03:54:17 10° N 03:58:01 52° WNW 03:58:54 41° WSW
ADEOS II 3.5 03:55:03 10° NNW 03:58:44 20° WNW 03:59:15 19° WNW
SL-4 R/B 2.3 03:57:30 37° WSW 03:59:19 86° SSE 04:04:08 10° ENE
IDEFIX/ARIANE 42P 3.1 03:56:14 10° N 04:01:09 41° WNW 04:03:12 29° WSW
PSLV R/B 3.5 03:57:24 10° NNE 04:01:37 82° ESE 04:05:44 11° SSW
Cosmos 468 Rocket 4.3 03:59:53 30° WSW 04:02:07 50° WNW 04:07:14 10° NNE
Cosmos 1570 Rocket 4.1 03:58:30 14° SSW 04:03:04 84° ESE 04:08:28 10° NNE
BREEZE-M DEB (TANK) 3.5 03:59:36 23° SW 04:03:22 46° S 04:06:24 10° E
USA 276 2.1 04:03:18 53° WSW 04:03:44 62° SSW 04:06:55 10° ESE
Cosmos 967 Rocket 4.5 04:03:43 22° SW 04:08:03 76° NW 04:14:29 10° NE
Cosmos 1862 Rocket 3.6 04:04:56 10° S 04:09:18 81° E 04:13:40 10° NNE
BREEZE-M DEB (TANK) 3.1 04:08:00 34° WSW 04:09:25 89° SSE 04:17:26 10° ENE
USA 234 3.2 04:03:32 10° SE 04:10:01 65° SW 04:16:32 10° WNW
Cosmos 2228 Rocket 4.4 04:10:44 21° WNW 04:10:50 21° WNW 04:14:16 10° NNW
CZ-4C R/B 3.3 04:05:33 10° NW 04:12:31 66° NE 04:20:38 10° SE
H-2A R/B 2.5 04:10:16 10° SSW 04:14:25 40° W 04:18:41 10° NNW
ALOS 3.5 04:10:57 10° NNE 04:15:25 43° E 04:19:52 10° S
SAR-Lupe-4 4.2 04:11:58 10° SSE 04:15:29 59° ENE 04:19:02 10° N
USA 305 3.9 04:12:36 17° WNW 04:15:29 40° N 04:19:31 10° ENE
PKM 4.1 04:14:43 22° WNW 04:16:45 47° SW 04:20:22 10° SE
Cosmos 1689 Rocket 4.4 04:14:52 10° SE 04:17:28 28° ENE 04:20:06 10° N
USA 306 3.9 04:16:52 16° WNW 04:19:56 40° N 04:23:58 10° ENE
COSMOS 2455 4.2 04:14:51 10° NNW 04:20:31 39° NE 04:26:09 10° ESE
Cosmos 2360 Rocket 2.2 04:15:02 11° SSW 04:20:35 86° WNW 04:26:17 10° NNE
Meteor 1-4 Rocket 3.9 04:21:08 21° WNW 04:21:09 21° WNW 04:23:56 10° NNW
Cosmos 1975 4.0 04:19:20 10° N 04:23:14 46° ENE 04:27:05 10° SSE
CZ-2C R/B 2.5 04:18:06 10° N 04:23:15 71° WNW 04:28:25 10° SSW
Cosmos 372 Rocket 4.0 04:21:54 10° NNW 04:26:57 57° WSW 04:31:56 10° S
Cosmos 2016 Rocket 3.9 04:20:58 10° N 04:27:06 81° W 04:33:11 10° S
Cosmos 1980 Rocket 3.9 04:29:06 12° WNW 04:32:00 17° NW 04:35:39 10° N
Cosmos 1000 Rocket 4.5 04:26:07 10° SSW 04:32:15 64° WNW 04:38:22 10° N
Cosmos 1484 Rocket 3.3 04:28:46 10° NNE 04:32:45 65° E 04:36:44 10° S
Cosmos 2061 Rocket 4.0 04:27:30 10° NNW 04:33:56 74° W 04:40:20 10° S
Cosmos 1666 4.2 04:31:28 10° NW 04:33:53 18° W 04:33:53 18° W
SAR-Lupe-1 4.0 04:30:58 10° SSE 04:34:32 88° WSW 04:38:09 10° NNW
Cosmos 1844 Rocket 2.8 04:30:26 10° NW 04:35:55 52° WSW 04:41:22 10° S
Cosmos 2233 Rocket 4.4 04:30:39 10° N 04:36:47 68° ENE 04:42:54 10° SSE
Cosmos 1515 4.0 04:33:58 10° S 04:37:44 68° E 04:41:31 10° NNE
Cosmos 2322 Rocket 2.8 04:36:12 15° WSW 04:40:32 39° NW 04:45:54 10° NNE
Cosmos 2278 Rocket 3.5 04:35:24 10° NNW 04:40:49 44° NE 04:46:12 10° SE
Cosmos 1844 3.8 04:39:18 10° NW 04:44:43 54° WSW 04:50:06 10° S
Meteor 1-31 Rocket 3.0 04:41:50 10° NNE 04:45:40 72° ESE 04:49:31 10° S
Okean 1 3.3 04:41:43 10° SSW 04:45:45 75° W 04:49:48 10° N
Lacrosse 5 3.2 04:41:23 10° WNW 04:45:55 32° N 04:50:28 10° ENE
ERBS 4.1 04:45:17 11° WNW 04:47:51 22° NNW 04:50:34 10° NE
COSMO-SKYMED 1 3.0 04:43:57 10° SSE 04:48:15 68° ENE 04:52:35 10° N
Cosmos 1864 Rocket 4.5 04:42:18 10° NNW 04:48:30 67° W 04:54:36 10° S
USA 307 3.8 04:45:21 10° WNW 04:49:27 45° NNE 04:53:33 10° E
Cosmos 1725 Rocket 4.0 04:43:38 10° NNW 04:49:45 67° W 04:55:52 10° S
Meteor 2-9 Rocket 4.1 04:45:01 10° NNW 04:50:33 87° W 04:55:55 10° S
Cosmos 2298 Rocket 4.2 04:46:36 10° NNW 04:51:45 52° WSW 04:56:53 10° S
Cosmos 1437 Rocket 2.8 04:48:49 10° SSW 04:52:32 52° WNW 04:56:21 10° N
deb Chang Zheng 4 3.5 04:48:25 10° N 04:52:42 68° WNW 04:56:55 10° SSW
USA 308 3.8 04:48:43 10° WNW 04:52:51 45° NNE 04:56:57 10° E
SL-16 R/B 3.2 04:48:33 12° WSW 04:52:54 29° NW 04:57:50 10° NNE
FALCON 9 DEB 3.8 04:53:27 12° W 04:56:26 45° NNW 04:59:46 10° ENE
Cosmos 1782 Rocket 3.6 04:56:29 10° N 05:01:00 89° WSW 05:05:27 10° S
Cosmos 1908 Rocket 3.8 04:57:52 10° NNW 05:02:12 50° W 05:06:31 10° SSW
Cosmos 841 Rocket 4.3 04:59:29 10° WSW 05:04:15 34° NW 05:09:04 10° N
Cosmos 1703 Rocket 3.5 05:01:18 10° SSW 05:05:37 74° W 05:10:00 10° N
Okean 1-7 2.9 05:01:58 10° SSW 05:06:13 79° W 05:10:30 10° N
Cosmos 2219 Rocket 2.3 05:02:47 10° SSW 05:08:28 86° ESE 05:14:12 10° NNE
CZ-4B R/B 2.8 05:05:41 10° NNE 05:09:19 77° ESE 05:12:53 10° S
Cosmos 1125 Rocket 3.6 05:05:47 10° NNW 05:10:58 57° WSW 05:16:06 10° S
Intercosmos 25 3.7 05:07:52 10° SW 05:11:03 31° WNW 05:13:57 10° N
CZ-4B R/B 2.7 05:11:10 10° SW 05:13:37 20° W 05:16:08 10° NW
CZ-4B R/B 4.2 05:09:33 10° N 05:13:53 59° WNW 05:18:16 10° SSW
Meteor 2-4 Rocket 3.8 05:10:06 10° S 05:15:31 80° E 05:20:55 10° NNE
USA 267 3.7 05:10:22 10° ENE 05:16:39 52° NNW 05:22:58 10° W
